{"data":{"norad_id":62639,"epoch":"2026-09-19T22:40:35.448672Z","epoch_age_seconds":62611,"freshness":"FRESH","line1":"1 62639U 25009AG  26262.94485473  .00004699  00000+0  15939-3 0  9991","line2":"2 62639  97.3968 344.6083 0001719 356.8866   3.2364 15.31020107 93390","mean_motion":15.31020107,"eccentricity":0.0001719,"inclination_deg":97.3968,"raan_deg":344.6083,"arg_perigee_deg":356.8866,"mean_anomaly_deg":3.2364,"bstar":0.00015939,"rev_number":9339,"period_min":94.054937189666,"perigee_km":471.5898003853,"apogee_km":473.94514134238,"semimajor_km":6850.9044708638,"source":"CELESTRAK","updated_at":"2026-09-20T09:00:34.719214Z"}}